[[{"header":{"parameterUnit":"m.s-1","parameterCategory":1,"la1":30.2991,"la2":30.254,"lo1":-89.0895,"lo2":-89.0444,"dy":0.0017,"dx":0.0017,"nx":28,"ny":28,"refTime":"2026-02-09T03:00:00:Z","depth":0,"parameterNumber":2,"parameterNumberName":"U-component_of_WINDS"},"data":[0,0,0,0,0,0,0,0,0,0,0,0,0,0,0,0,0,0,0,0,0,0,0,0,0,0,0,0,0,0,0,0,0,0,0,0,0,0,0,0,0,0,0,0,0,0,0,0,0,0,0,0,0,0,0,0,0,0,1.472,1.4721,0,1.4841,1.4843,1.4844,1.4883,1.4883,1.4882,1.4882,1.5005,1.5009,1.5013,0,0,0,0,0,0,0,0,0,0,0,0,0,1.4523,1.4526,1.472,1.4721,1.4723,1.4841,1.4843,1.4845,1.4884,1.4883,1.4882,1.4882,1.5004,1.5009,1.5013,0,0,0,0,0,0,0,0,0,0,0,0,0,1.4622,1.4527,1.472,1.4757,1.4761,1.4841,1.4843,1.4845,1.4884,1.4883,1.4882,1.4881,1.5003,1.5008,1.5014,1.5065,0,0,1.5031,1.5034,0,0,0,0,0,0,0,0,1.4617,1.463,1.475,1.4754,1.476,1.4847,1.4819,1.4919,1.4884,1.4837,1.4882,1.4881,1.4953,1.4963,1.4987,1.5071,1.5076,1.5032,1.5035,1.5038,1.5039,0,0,0,0,0,0,0,1.461,1.4625,1.4768,1.4751,1.4757,1.4768,1.4781,1.4838,1.4898,1.4841,1.4844,1.4858,1.4956,1.4982,1.4991,1.5078,1.5032,1.5037,1.504,1.5042,1.5212,1.5213,0,0,0,0,0,0,1.4597,1.4619,1.4764,1.4772,1.4685,1.4772,1.4787,1.4819,1.4898,1.4909,1.4859,1.486,1.4973,1.4984,1.4995,1.5061,1.5038,1.5043,1.5046,1.5211,1.5212,1.5213,0,0,0,0,0,0,1.4592,1.4609,1.4759,1.4696,1.4716,1.4776,1.4812,1.4822,1.4848,1.4911,1.4922,1.4874,1.4972,1.4987,1.5048,1.5066,1.5046,1.5051,1.521,1.5211,1.5213,1.5194,0,0,0,0,0,0,1.4586,1.4607,1.4627,1.4696,1.4719,1.481,1.4814,1.4825,1.4858,1.486,1.4929,1.4939,1.4973,1.5039,1.5054,1.5074,1.5055,1.5208,1.521,1.5212,1.5193,1.5194,1.5196,0,0,0,0,0,1.4579,1.4617,1.4628,1.4645,1.4745,1.4811,1.4824,1.4862,1.4859,1.488,1.4921,1.4937,1.5062,1.5045,1.5062,1.5084,1.5207,1.521,1.5212,1.5192,1.5194,1.5196,0,0,0,0,0,0,1.4547,1.4626,1.464,1.4701,1.4749,1.4817,1.4844,1.4863,1.4912,1.4912,1.4958,1.4973,1.503,1.5063,1.5043,1.5138,1.5135,1.5141,1.5115,1.5117,1.5118,1.5109,1.506,0,0,0,0,0,1.4547,1.4594,1.466,1.4708,1.4731,1.4784,1.4814,1.4839,1.4891,1.4911,1.4956,1.5005,1.5056,1.5088,1.5138,1.5198,1.5214,1.5222,1.5223,1.5224,1.5228,1.5263,1.5268,1.5221,1.5221,1.5221,0,0,1.4548,1.4597,1.4623,1.4703,1.4743,1.479,1.48,1.485,1.4886,1.4919,1.4979,1.5014,1.5072,1.5133,1.5162,1.5162,1.5245,1.5227,1.5227,1.5231,1.5266,1.5271,1.5275,1.5223,1.5223,1.5222,0,0,1.4573,1.4615,1.4659,1.47,1.4761,1.4796,1.4807,1.4873,1.4898,1.4959,1.4985,1.5029,1.5115,1.5156,1.5188,1.5231,1.5248,1.5246,1.5253,1.5286,1.529,1.5294,1.5309,1.5314,1.525,1.525,1.525,0,1.4566,1.4639,1.468,1.4728,1.4763,1.4796,1.4842,1.4879,1.4953,1.4976,1.4976,1.5085,1.5127,1.5198,1.5209,1.5234,1.5248,1.5238,1.5286,1.529,1.5294,1.531,1.5315,1.5249,1.5249,1.5249,1.5249,0,1.4627,1.4677,1.4706,1.4778,1.4815,1.4862,1.4911,1.4944,1.4967,1.5002,1.5065,1.5116,1.5178,1.5197,1.5219,1.5272,1.527,1.5277,1.5275,1.5297,1.5313,1.5319,1.5248,1.5249,1.5249,1.5249,0,0,1.4634,1.4729,1.4739,1.4773,1.4844,1.4883,1.4932,1.4993,1.5021,1.5072,1.5114,1.5187,1.5195,1.5231,1.5259,1.5288,1.532,1.5292,1.5294,1.5296,1.5382,1.5376,1.5383,1.5332,1.5333,1.5335,1.5378,0,1.4669,1.4758,1.4797,1.4868,1.4915,1.4948,1.4991,1.5039,1.5074,1.512,1.5158,1.5209,1.5215,1.5237,1.5268,1.531,1.5338,1.5307,1.5372,1.5374,1.5356,1.5391,1.5384,1.5422,1.5384,1.5385,1.5386,0,1.472,1.4772,1.4848,1.4915,1.4936,1.4974,1.5034,1.5077,1.5133,1.5156,1.5197,1.5224,1.5277,1.5272,1.5346,1.5325,1.5354,1.5378,1.5381,1.5388,1.5381,1.5399,1.5435,1.5441,1.5396,1.5395,1.5394,0,1.4718,1.4807,1.4864,1.4892,1.4971,1.4997,1.5031,1.5087,1.5121,1.5173,1.5197,1.5254,1.5285,1.533,1.5371,1.5364,1.5442,1.544,1.5463,1.5462,1.5478,1.5476,1.5519,1.5497,1.5497,1.5497,1.5496,0,1.4753,1.4798,1.4865,1.49,1.4952,1.4997,1.5048,1.5084,1.5134,1.5177,1.5209,1.5249,1.5302,1.5348,1.5382,1.5439,1.5453,1.5473,1.5481,1.547,1.5467,1.5489,1.5488,1.5498,1.5498,1.5497,1.5497,0,1.4759,1.4805,1.487,1.494,1.4959,1.4994,1.5055,1.5091,1.5127,1.5182,1.5197,1.5255,1.5312,1.5358,1.5432,1.5455,1.5515,1.5524,1.5496,1.55,1.552,1.5518,1.5579,1.559,1.556,1.556,1.556,0,1.4777,1.4813,1.4888,1.4919,1.4953,1.5003,1.5039,1.5086,1.5122,1.5189,1.5217,1.5277,1.5326,1.5416,1.5465,1.5522,1.5533,1.5551,1.5542,1.553,1.5534,1.5531,1.5535,1.5551,1.5551,1.5551,1.5552,0,1.4806,1.4827,1.4878,1.4937,1.4979,1.5027,1.5077,1.5101,1.5156,1.5195,1.5254,1.5293,1.537,1.5429,1.5492,1.5527,1.5549,1.5554,1.5563,1.5551,1.5534,1.5544,1.5498,1.5552,1.5552,1.5552,1.5552,1.5552,1.4819,1.4853,1.4911,1.4966,1.5009,1.5054,1.5092,1.5134,1.5184,1.525,1.5275,1.5336,1.5392,1.5479,1.5515,1.5564,1.5566,1.5578,1.5581,1.5583,1.5582,1.5526,1.5575,1.5575,1.5576,1.5576,1.5576,0,1.4849,1.4888,1.4939,1.5008,1.5052,1.5069,1.5125,1.5161,1.5214,1.5265,1.5314,1.5382,1.544,1.5494,1.5555,1.5583,1.5595,1.5597,1.5595,1.5604,1.5576,1.5563,1.5587,1.5587,1.5587,1.5587,1.5587,1.5587,1.487,1.4928,1.4957,1.5037,1.5077,1.5137,1.5167,1.521,1.5251,1.5326,1.5375,1.541,1.5463,1.5527,1.5581,1.5596,1.5617,1.5617,1.5634,1.5607,1.5605,1.5604,1.5591,1.5621,1.5621,1.5657,1.5657,1.5658]},{"header":{"parameterUnit":"m.s-1","parameterCategory":1,"la1":30.2991,"la2":30.254,"lo1":-89.0895,"lo2":-89.0444,"dy":0.0017,"dx":0.0017,"nx":28,"ny":28,"refTime":"2026-02-09T03:00:00:Z","depth":0,"parameterNumber":3,"parameterNumberName":"V-component_of_WINDS"},"data":[0,0,0,0,0,0,0,0,0,0,0,0,0,0,0,0,0,0,0,0,0,0,0,0,0,0,0,0,0,0,0,0,0,0,0,0,0,0,0,0,0,0,0,0,0,0,0,0,0,0,0,0,0,0,0,0,0,0,0.442,0.4419,0,0.44,0.4399,0.4399,0.4389,0.4389,0.4389,0.4389,0.437,0.437,0.4369,0,0,0,0,0,0,0,0,0,0,0,0,0,0.4451,0.445,0.442,0.4419,0.4419,0.44,0.4399,0.4399,0.4389,0.4389,0.4389,0.4389,0.437,0.437,0.4369,0,0,0,0,0,0,0,0,0,0,0,0,0,0.4435,0.445,0.442,0.4412,0.4411,0.44,0.4399,0.4399,0.4389,0.4389,0.4389,0.4389,0.4371,0.437,0.4369,0.4365,0,0,0.4367,0.4367,0,0,0,0,0,0,0,0,0.4436,0.4433,0.4413,0.4412,0.4411,0.4397,0.4404,0.4388,0.4389,0.4397,0.4389,0.4389,0.4379,0.4378,0.4374,0.4364,0.4364,0.4367,0.4367,0.4366,0.4366,0,0,0,0,0,0,0,0.4437,0.4434,0.4412,0.4413,0.4412,0.441,0.4407,0.4401,0.4389,0.4397,0.4396,0.4393,0.4379,0.4375,0.4374,0.4363,0.4367,0.4366,0.4366,0.4366,0.435,0.435,0,0,0,0,0,0,0.4439,0.4435,0.4412,0.4411,0.4423,0.4409,0.4406,0.4401,0.4389,0.4387,0.4393,0.4393,0.4376,0.4375,0.4373,0.4368,0.4366,0.4366,0.4365,0.435,0.435,0.435,0,0,0,0,0,0,0.4439,0.4437,0.4413,0.4423,0.442,0.4409,0.4403,0.4401,0.4397,0.4386,0.4384,0.4392,0.4376,0.4374,0.4367,0.4367,0.4365,0.4365,0.435,0.435,0.435,0.4357,0,0,0,0,0,0,0.444,0.4437,0.4435,0.4423,0.4419,0.4407,0.4403,0.4401,0.4396,0.4395,0.4384,0.4382,0.4376,0.4368,0.4367,0.4366,0.4364,0.435,0.435,0.435,0.4357,0.4357,0.4358,0,0,0,0,0,0.4442,0.4438,0.4435,0.4432,0.4416,0.4407,0.4405,0.4397,0.4396,0.4394,0.4387,0.4383,0.4367,0.4368,0.4366,0.4365,0.435,0.435,0.435,0.4356,0.4357,0.4358,0,0,0,0,0,0,0.4451,0.4436,0.4433,0.4425,0.4417,0.4405,0.4403,0.4398,0.4391,0.4391,0.4382,0.438,0.4374,0.4369,0.4369,0.436,0.4358,0.4358,0.4364,0.4364,0.4365,0.4366,0.4363,0,0,0,0,0,0.4452,0.4445,0.4433,0.4428,0.4424,0.4414,0.441,0.4404,0.4396,0.4393,0.4386,0.4379,0.4372,0.4368,0.4361,0.4356,0.4354,0.4354,0.4355,0.4355,0.4355,0.4352,0.4352,0.435,0.435,0.435,0,0,0.4455,0.4446,0.4442,0.443,0.4423,0.4417,0.4412,0.4405,0.44,0.4392,0.4385,0.438,0.4371,0.4365,0.4362,0.4361,0.4355,0.4355,0.4356,0.4355,0.4352,0.4352,0.4352,0.435,0.435,0.435,0,0,0.4456,0.4448,0.4443,0.4437,0.4426,0.442,0.4419,0.4407,0.4403,0.4396,0.439,0.4384,0.4373,0.4367,0.4363,0.4362,0.4358,0.436,0.4363,0.436,0.436,0.436,0.436,0.436,0.436,0.436,0.436,0,0.4461,0.445,0.4441,0.4435,0.443,0.4422,0.4417,0.4411,0.4399,0.4396,0.4395,0.4381,0.4374,0.4367,0.4366,0.4363,0.4362,0.4361,0.4361,0.4361,0.4361,0.436,0.436,0.4361,0.436,0.436,0.436,0,0.4456,0.4449,0.4446,0.4435,0.4429,0.4424,0.4415,0.441,0.4405,0.4399,0.4392,0.4384,0.4376,0.4374,0.4369,0.4366,0.4365,0.4362,0.436,0.4361,0.4361,0.4361,0.4361,0.4361,0.4361,0.4361,0,0,0.4463,0.4446,0.4445,0.444,0.4428,0.4423,0.4417,0.4409,0.4405,0.4398,0.4393,0.4384,0.4381,0.4376,0.4371,0.4368,0.4368,0.4366,0.4366,0.4367,0.4364,0.4366,0.4366,0.4366,0.4366,0.4366,0.4365,0,0.4462,0.4451,0.4443,0.4435,0.4429,0.4421,0.4416,0.4409,0.4403,0.4397,0.4391,0.4385,0.4382,0.4378,0.4376,0.4369,0.4368,0.4369,0.4362,0.4361,0.4364,0.4366,0.4368,0.4368,0.4365,0.4365,0.4365,0,0.446,0.4452,0.4443,0.4433,0.443,0.4425,0.4417,0.4411,0.4403,0.4399,0.4393,0.4388,0.4382,0.438,0.4372,0.4373,0.437,0.4366,0.4366,0.4365,0.4363,0.4365,0.4368,0.4368,0.4364,0.4364,0.4364,0,0.4466,0.4453,0.4446,0.4442,0.4429,0.4426,0.4421,0.4412,0.4408,0.4401,0.4398,0.439,0.4386,0.4381,0.4374,0.4373,0.4367,0.4364,0.4363,0.4364,0.4362,0.4362,0.4364,0.436,0.436,0.436,0.436,0,0.4466,0.4461,0.4449,0.4444,0.4439,0.443,0.4425,0.4419,0.4411,0.4406,0.44,0.4395,0.4386,0.4381,0.4375,0.437,0.4368,0.4365,0.4363,0.4365,0.4366,0.4363,0.4363,0.436,0.436,0.436,0.436,0,0.4471,0.4463,0.4455,0.4443,0.444,0.4436,0.4427,0.4423,0.4417,0.441,0.4408,0.4399,0.4392,0.4384,0.4375,0.4372,0.4366,0.4364,0.4369,0.4368,0.4368,0.4368,0.4368,0.4368,0.4364,0.4364,0.4364,0,0.4472,0.4468,0.4456,0.4452,0.4446,0.444,0.4435,0.4426,0.4422,0.4412,0.4409,0.4402,0.4395,0.4385,0.4378,0.4371,0.4368,0.4369,0.4367,0.437,0.4369,0.4369,0.4368,0.4369,0.437,0.437,0.437,0,0.4474,0.447,0.4463,0.4455,0.4449,0.4442,0.4435,0.4432,0.4422,0.4417,0.441,0.4405,0.4396,0.4389,0.4381,0.4376,0.4371,0.437,0.437,0.4372,0.4375,0.4373,0.437,0.437,0.437,0.437,0.437,0.437,0.4477,0.4473,0.4464,0.4456,0.445,0.4444,0.4439,0.4432,0.4426,0.4417,0.4413,0.4406,0.4398,0.4387,0.4382,0.4377,0.4375,0.4374,0.4374,0.4374,0.4375,0.4375,0.4375,0.4375,0.4375,0.4375,0.4375,0,0.4479,0.4473,0.4466,0.4456,0.445,0.4446,0.4438,0.4433,0.4427,0.442,0.4414,0.4406,0.4399,0.4391,0.4383,0.4381,0.4379,0.4379,0.4379,0.4378,0.4376,0.4378,0.4381,0.4381,0.4381,0.4381,0.4381,0.4381,0.4479,0.4472,0.4467,0.4457,0.4451,0.4444,0.444,0.4434,0.4428,0.4419,0.4413,0.4408,0.44,0.4393,0.4386,0.4384,0.4382,0.4383,0.438,0.4379,0.4378,0.4378,0.4379,0.4383,0.4383,0.4383,0.4383,0.4383]}]]